Tracking 22456 objects as of 7-Mar-2021
HD Live streaming from Space Station
objects crossing your sky now

METEOR 2-7 DEB

Track METEOR 2-7 DEB now!
10-day predictions


NORAD ID: 36879
Int'l Code: 1981-043S
Perigee: 782.3 km
Apogee: 840.0 km
Inclination: 81.3 °
Period: 101.0 minutes
Semi major axis: 7182 km
RCS: 0.0078 m2 (small)
Launch date: May 14, 1981
Source: Commonwealth of Independent States (former USSR) (CIS)
Launch site: PLESETSK MISSILE AND SPACE COMPLEX (PKMTR)

Note: This is SATELLITE DEBRIS
aabbcc
Your satellite tracking list
Your tracking list is empty




NASA's NSSDC Master Catalog

Two Line Element Set (TLE):
1 36879U 81043S   21064.43465699  .00001491  00000-0  61051-3 0  9999
2 36879  81.2543 112.3980 0040156  31.4607 328.8962 14.26338413377885
Source of the keplerian elements: AFSPC